Location: Brienzwiler
(46.7508°N, 8.1014°E)
Time: 07:40:45
(UTC+00:00)

Cosmos 2333 - Pass Details

Date: 05 July 2020
Orbit: 828 x 867 km, 70.9° (Epoch: 05 August)

Event Time Altitude Azimuth Distance (km) Brightness Sun altitude
Rises 20:29:08 0° 190° (S) 3,369 7.0 -9.2°
Reaches altitude 10° 20:31:35 10° 186° (S) 2,444 6.2 -9.5°
Maximum altitude 20:37:02 55° 110° (ESE) 1,014 4.3 -10.1°
Drops below altitude 10° 20:42:35 10° 35° (NE) 2,486 6.9 -10.7°
Sets 20:45:05 0° 31° (NNE) 3,432 7.7 -11.0°
